Hourly Data Report for October 26, 2000

SHERBROOKE A
QUEBEC

45°26'00.000" N
71°41'00.000" W
241.40 m
7028124
71610
YSC

Download Data

Hourly Data (October 2000)
Hourly Data Report for October 26, 2000
TIME
LST
Temp Definition
°C
Dew Point Definition
°C
Rel Hum Definition
%
Precip. Amount Definition
mm

Wind Dir Definition
10's deg

Wind Spd Definition
km/h
Visibility Definition
km
Stn Press Definition
kPa
Hmdx Definition


Wind Chill Definition


Weather Definition


00:00 1.7 1.1 96   8 4 6.4 99.51      
01:00 1.8 1.5 98   7 6 6.4 99.48      
02:00 0.7 -0.1 94     0 9.7 99.48      
03:00 3.4 3.0 97   11 7 9.7 99.45      
04:00 4.1 3.7 97   32 4 11.3 99.48      
05:00 3.0 2.4 96   10 4 11.3 99.48      
06:00 2.0 1.4 96   13 4 12.9 99.48      
07:00 4.2 3.9 98   13 4 19.3 99.51     Mostly Cloudy
08:00 7.1 6.3 95     0 19.3 99.51     Mostly Cloudy
09:00 11.1 8.9 86     0 19.3 99.51     Cloudy
10:00 12.8 9.2 79   20 7 19.3 99.51     Mostly Cloudy
11:00 17.0 10.9 67   23 9 24.1 99.48     Mostly Cloudy
12:00 18.6 11.1 62   23 19 24.1 99.41     Mostly Cloudy
13:00 19.7 11.5 59   24 15 24.1 99.35     Mostly Cloudy
14:00 19.1 11.1 60   25 11 24.1 99.35     Mostly Cloudy
15:00 19.4 11.0 58   27 19 19.3 99.31     Mainly Clear
16:00 17.7 10.7 64   25 9 19.3 99.35     Mainly Clear
17:00 15.2 10.5 74   23 6 15.0 99.31      
18:00 10.6 9.2 91   21 4 11.3 99.31      
19:00 9.0 8.4 96     0 8.0 99.31      
20:00 7.6 7.5 99   8 6 0.6 99.35     LegendNANA
21:00 7.9 7.9 100   6 6 5.6 99.31     LegendNANA
22:00 8.0 7.8 99   8 6 5.6 99.28     LegendNANA
23:00 7.2 7.0 99   6 4 4.8 99.25     LegendNANA

Notes on Data Quality.

Legend

  • E = Estimated
  • M = Missing
  • NA = Not Available*
  • [empty] = Indicates an unobserved value
Date modified: